Weather History for Hallock, MN

Change the Weather History Date:

Saturday, March 16, 2013

  Actual Average Record
Temperature  
Mean Temperature 0 °F -  
Max Temperature 8 °F 31 °F 69 °F (2012)
Min Temperature -9 °F 12 °F -13 °F (1955)
Degree Days  
Heating Degree Days 66    
Moisture  
Dew Point -6 °F    
Average Humidity 77    
Maximum Humidity 85    
Minimum Humidity 61    
Precipitation  
Precipitation 0.00 in - - ()
Sea Level Pressure  
Sea Level Pressure 30.23 in    
Wind  
Wind Speed 10 mph (NW)    
Max Wind Speed 18 mph    
Max Gust Speed 21 mph    
Visibility 9 miles    
Events Snow    
Averages and records for this station are not official NWS values.
T = Trace of Precipitation, MM = Missing Value Source: NWS Daily Summary

Daily Weather History Graph

Daily Weather History Graph

Search for Another Location

Airport:

Trip Planner

Search our weather history database for the weather conditions in past years. The results will help you decide how hot, cold, wet, or windy it might be!

Date:

Astronomy

Mar. 16, 2013 Rise Set
Actual Time 7:38 AM CDT 7:35 PM CDT
Civil Twilight 7:07 AM CDT 8:06 PM CDT
Nautical Twilight 6:30 AM CDT 8:43 PM CDT
Astronomical Twilight 5:52 AM CDT 9:21 PM CDT
Moon 9:43 AM CDT (3/16) 12:13 AM CDT (3/16)
Length of Visible Light 12h 59m
Length of Day
11h 56m
Waxing Crescent, 23% of the Moon is Illuminated
Mar 16
Waxing Crescent
Mar 19
First Quarter
Mar 27
Full
Apr 2
Last Quarter
Apr 10
New

Hourly Weather History & Observations

Time (CDT) Temp. Windchill Dew Point Humidity Pressure Visibility Wind Dir Wind Speed Gust Speed Precip Events Conditions
12:14 AM 1.4 °F -16.1 °F -2.2 °F 85% 30.17 in 10.0 mi NNW 12.7 mph - N/A   Clear
12:34 AM -0.4 °F -18.4 °F -4.0 °F 85% 30.18 in 10.0 mi NNW 12.7 mph - N/A   Clear
12:54 AM -0.4 °F -18.4 °F -4.0 °F 85% 30.18 in 10.0 mi NNW 12.7 mph - N/A   Clear
1:14 AM -0.4 °F -18.4 °F -5.8 °F 78% 30.18 in 5.0 mi NNW 12.7 mph - N/A   Clear
1:34 AM -2.2 °F -19.9 °F -5.8 °F 85% 30.17 in 5.0 mi NNW 11.5 mph - N/A   Clear
1:54 AM -2.2 °F -20.7 °F -5.8 °F 85% 30.18 in 10.0 mi NNW 12.7 mph - N/A   Clear
2:14 AM -2.2 °F -18.9 °F -5.8 °F 85% 30.18 in 4.0 mi NNW 10.4 mph - N/A   Mostly Cloudy
2:34 AM -2.2 °F -21.5 °F -5.8 °F 85% 30.18 in 5.0 mi NNW 13.8 mph - N/A   Overcast
2:54 AM -0.4 °F -15.7 °F -4.0 °F 85% 30.19 in 4.0 mi NNW 9.2 mph - N/A   Overcast
3:14 AM -0.4 °F -17.6 °F -4.0 °F 85% 30.20 in 5.0 mi NNW 11.5 mph - N/A   Overcast
3:34 AM -0.4 °F -18.4 °F -4.0 °F 85% 30.20 in 10.0 mi NNW 12.7 mph - N/A   Overcast
3:54 AM -0.4 °F -15.7 °F -4.0 °F 85% 30.19 in 10.0 mi NNW 9.2 mph - N/A   Overcast
4:14 AM 1.4 °F -13.5 °F -2.2 °F 85% 30.20 in 10.0 mi NNW 9.2 mph - N/A   Overcast
4:34 AM 1.4 °F -12.5 °F -2.2 °F 85% 30.20 in 10.0 mi NNW 8.1 mph - N/A   Overcast
4:54 AM 1.4 °F -8.3 °F -2.2 °F 85% 30.20 in 7.0 mi NW 4.6 mph - N/A Snow Light Snow
5:14 AM 1.4 °F -8.3 °F -2.2 °F 85% 30.20 in 10.0 mi NW 4.6 mph - N/A   Overcast
5:34 AM 1.4 °F -9.9 °F -2.2 °F 85% 30.20 in 10.0 mi NW 5.8 mph - N/A   Overcast
5:54 AM -0.4 °F -10.4 °F -4.0 °F 85% 30.20 in 10.0 mi NW 4.6 mph - N/A   Overcast
6:14 AM -0.4 °F -10.4 °F -4.0 °F 85% 30.20 in 10.0 mi WNW 4.6 mph - N/A   Mostly Cloudy
6:34 AM -4.0 °F -12.4 °F -7.6 °F 85% 30.20 in 7.0 mi West 3.5 mph - N/A Snow Light Snow
6:54 AM -5.8 °F -14.5 °F -9.4 °F 84% 30.20 in 10.0 mi West 3.5 mph - N/A   Mostly Cloudy
7:14 AM -5.8 °F -14.5 °F -9.4 °F 84% 30.20 in 10.0 mi West 3.5 mph - N/A   Mostly Cloudy
7:34 AM -5.8 °F -16.7 °F -9.4 °F 84% 30.20 in 10.0 mi West 4.6 mph - N/A   Scattered Clouds
7:54 AM -5.8 °F -19.9 °F -9.4 °F 84% 30.21 in 10.0 mi WNW 6.9 mph - N/A   Clear
8:14 AM -7.6 °F -18.8 °F -11.2 °F 84% 30.20 in 10.0 mi WNW 4.6 mph - N/A   Clear
8:33 AM -7.6 °F -18.8 °F -11.2 °F 84% 30.20 in 10.0 mi WNW 4.6 mph - N/A Snow Light Snow
8:54 AM -7.6 °F - -11.2 °F 84% 30.20 in 10.0 mi Calm Calm - N/A   Clear
9:14 AM -9.4 °F -22.7 °F -14.8 °F 77% 30.20 in 10.0 mi West 5.8 mph - N/A   Clear
9:33 AM -7.6 °F - -11.2 °F 84% 30.19 in 10.0 mi Calm Calm - N/A Snow Light Snow
9:54 AM -5.8 °F -14.5 °F -9.4 °F 84% 30.19 in 10.0 mi SW 3.5 mph - N/A   Clear
10:14 AM -4.0 °F -16.3 °F -7.6 °F 85% 30.20 in 10.0 mi WSW 5.8 mph - N/A   Mostly Cloudy
10:33 AM -0.4 °F -14.7 °F -5.8 °F 78% 30.20 in 7.0 mi WSW 8.1 mph - N/A   Overcast
10:54 AM -0.4 °F -14.7 °F -4.0 °F 85% 30.20 in 5.0 mi WSW 8.1 mph - N/A   Scattered Clouds
11:14 AM 1.4 °F -12.5 °F -2.2 °F 85% 30.20 in 7.0 mi West 8.1 mph - N/A Snow Light Snow
11:33 AM 1.4 °F -13.5 °F -2.2 °F 85% 30.20 in 7.0 mi West 9.2 mph - N/A   Scattered Clouds
11:54 AM 3.2 °F -9.1 °F -2.2 °F 78% 30.20 in 7.0 mi West 6.9 mph - N/A   Scattered Clouds
12:14 PM 3.2 °F -10.3 °F -2.2 °F 78% 30.21 in 10.0 mi West 8.1 mph - N/A   Clear
12:33 PM 5.0 °F -6.9 °F -2.2 °F 72% 30.22 in 10.0 mi WNW 6.9 mph - N/A   Clear
12:54 PM 5.0 °F -10.0 °F -2.2 °F 72% 30.22 in 10.0 mi WNW 10.4 mph - N/A   Clear
1:13 PM 6.8 °F -7.8 °F -2.2 °F 67% 30.22 in 10.0 mi NW 10.4 mph - N/A   Clear
1:34 PM 6.8 °F -7.8 °F -0.4 °F 72% 30.23 in 10.0 mi NW 10.4 mph - N/A   Clear
1:54 PM 6.8 °F -7.8 °F -0.4 °F 72% 30.23 in 10.0 mi NW 10.4 mph - N/A   Clear
2:14 PM 6.8 °F -7.8 °F -0.4 °F 72% 30.23 in 10.0 mi NW 10.4 mph - N/A   Clear
2:34 PM 6.8 °F -8.6 °F -0.4 °F 72% 30.24 in 10.0 mi NW 11.5 mph - N/A   Clear
2:53 PM 6.8 °F -7.8 °F -0.4 °F 72% 30.24 in 10.0 mi NW 10.4 mph - N/A   Clear
3:14 PM 8.6 °F -5.5 °F -0.4 °F 67% 30.24 in 10.0 mi NW 10.4 mph - N/A   Clear
3:34 PM 8.6 °F -6.3 °F -0.4 °F 67% 30.24 in 10.0 mi NNW 11.5 mph - N/A   Clear
3:54 PM 8.6 °F -8.3 °F 1.4 °F 73% 30.24 in 10.0 mi NNW 15.0 mph - N/A   Clear
4:14 PM 8.6 °F -9.5 °F 1.4 °F 73% 30.24 in 7.0 mi NNW 17.3 mph - N/A   Scattered Clouds
4:34 PM 8.6 °F -10.0 °F 1.4 °F 73% 30.24 in 4.0 mi NNW 18.4 mph - N/A   Haze
4:54 PM 6.8 °F -10.7 °F -0.4 °F 72% 30.25 in 7.0 mi NNW 15.0 mph 20.7 mph N/A   Scattered Clouds
5:14 PM 6.8 °F -12.4 °F -2.2 °F 67% 30.25 in 7.0 mi NNW 18.4 mph - N/A   Clear
5:34 PM 6.8 °F -11.8 °F -0.4 °F 72% 30.24 in 7.0 mi NNW 17.3 mph - N/A   Clear
5:53 PM 5.0 °F -14.7 °F -2.2 °F 72% 30.25 in 5.0 mi NNW 18.4 mph - N/A   Haze
6:14 PM 5.0 °F -13.6 °F -5.8 °F 61% 30.25 in 7.0 mi NNW 16.1 mph - N/A   Clear
6:34 PM 3.2 °F -15.9 °F -5.8 °F 66% 30.24 in 10.0 mi North 16.1 mph 19.6 mph N/A   Clear
6:54 PM 3.2 °F -15.3 °F -5.8 °F 66% 30.25 in 10.0 mi NNW 15.0 mph - N/A   Clear
7:14 PM 3.2 °F -14.6 °F -7.6 °F 61% 30.25 in 10.0 mi NNW 13.8 mph 18.4 mph N/A   Clear
7:34 PM 1.4 °F -14.5 °F -7.6 °F 66% 30.26 in 10.0 mi NNW 10.4 mph - N/A   Clear
7:54 PM -0.4 °F -14.7 °F -7.6 °F 72% 30.27 in 10.0 mi NNW 8.1 mph - N/A   Clear
8:13 PM -2.2 °F -15.6 °F -9.4 °F 71% 30.28 in 10.0 mi NNW 6.9 mph - N/A   Clear
8:34 PM -2.2 °F -18.0 °F -9.4 °F 71% 30.29 in 10.0 mi NNW 9.2 mph - N/A   Clear
8:54 PM -2.2 °F -14.2 °F -11.2 °F 66% 30.29 in 10.0 mi NNW 5.8 mph - N/A   Clear
9:13 PM -5.8 °F -16.7 °F -11.2 °F 77% 30.29 in 10.0 mi NNW 4.6 mph - N/A   Clear
9:34 PM -5.8 °F -18.4 °F -11.2 °F 77% 30.30 in 10.0 mi NW 5.8 mph - N/A   Clear
9:54 PM -5.8 °F -18.4 °F -13.0 °F 71% 30.30 in 10.0 mi NNW 5.8 mph - N/A   Clear
10:13 PM -5.8 °F -18.4 °F -11.2 °F 77% 30.30 in 10.0 mi NNW 5.8 mph - N/A   Clear
10:34 PM -5.8 °F -16.7 °F -13.0 °F 71% 30.30 in 10.0 mi NW 4.6 mph - N/A   Clear
10:54 PM -5.8 °F -18.4 °F -13.0 °F 71% 30.30 in 10.0 mi NNW 5.8 mph - N/A   Clear
11:14 PM -7.6 °F -20.6 °F -14.8 °F 71% 30.30 in 10.0 mi NNW 5.8 mph - N/A   Clear
11:34 PM -5.8 °F -16.7 °F -11.2 °F 77% 30.30 in 10.0 mi NNW 4.6 mph - N/A   Clear
11:54 PM -7.6 °F - -14.8 °F 71% 30.30 in 10.0 mi Calm Calm - N/A   Clear